| time (UTC) | temp F | wind direction | speed knots | gust knots | rain 1hr in | rain 24hr in | rain mn in | humidity % | barometer mb |
| 20260506113056 | 70 | 289 | 14.8 | 20.9 | 0.00 | 0.00 | 0.00 | 27 | 1003.7 |
| 20260506111554 | 70 | 290 | 13.9 | 19.1 | 0.00 | 0.00 | 0.00 | 28 | 1003.6 |
| 20260506110051 | 71 | 275 | 11.3 | 16.5 | 0.00 | 0.00 | 0.00 | 27 | 1003.5 |
| 20260506104610 | 71 | 287 | 12.2 | 15.6 | 0.00 | 0.00 | 0.00 | 28 | 1003.4 |
| 20260506103047 | 71 | 265 | 9.6 | 13.9 | 0.00 | 0.00 | 0.00 | 29 | 1003.5 |
| 20260506101547 | 71 | 261 | 10.4 | 13.0 | 0.00 | 0.00 | 0.00 | 30 | 1003.3 |
| 20260506100045 | 72 | 265 | 11.3 | 14.8 | 0.00 | 0.00 | 0.00 | 29 | 1003.2 |
| 20260506094540 | 73 | 273 | 13.0 | 16.5 | 0.00 | 0.00 | 0.00 | 28 | 1003.2 |
| 20260506093037 | 73 | 265 | 13.0 | 17.4 | 0.00 | 0.00 | 0.00 | 31 | 1003.1 |
| 20260506091538 | 73 | 259 | 12.2 | 14.8 | 0.00 | 0.00 | 0.00 | 33 | 1003.0 |
| 20260506090044 | 72 | 259 | 11.3 | 13.9 | 0.00 | 0.00 | 0.00 | 35 | 1002.9 |
| 20260506084537 | 71 | 242 | 10.4 | 13.0 | 0.00 | 0.00 | 0.00 | 36 | 1002.8 |
| 20260506083040 | 72 | 240 | 8.7 | 11.3 | 0.00 | 0.00 | 0.00 | 36 | 1002.8 |
| 20260506081532 | 72 | 241 | 8.7 | 10.4 | 0.00 | 0.00 | 0.00 | 36 | 1002.8 |
| 20260506073030 | 73 | 221 | 7.8 | 9.6 | 0.00 | 0.00 | 0.00 | 34 | 1002.7 |
| 20260506071532 | 73 | 230 | 7.0 | 11.3 | 0.00 | 0.00 | 0.00 | 35 | 1002.8 |
| 20260506061532 | 73 | 148 | 7.0 | 8.7 | 0.00 | 0.00 | 0.00 | 34 | 1002.4 |
| 20260506044531 | 74 | 155 | 7.8 | 9.6 | 0.00 | 0.00 | 0.00 | 35 | 1002.1 |
| 20260506043018 | 77 | 45 | 3.5 | 5.2 | 0.00 | 0.00 | 0.00 | 29 | 1002.0 |
| 20260506041519 | 77 | 294 | 2.6 | 4.3 | 0.00 | 0.00 | 0.00 | 28 | 1001.7 |
| 20260506040028 | 77 | 287 | 2.6 | 6.1 | 0.00 | 0.00 | 0.00 | 28 | 1001.5 |
| 20260506034517 | 77 | 309 | 6.1 | 8.7 | 0.00 | 0.00 | 0.00 | 29 | 1001.1 |
| 20260506033020 | 77 | 324 | 7.8 | 9.6 | 0.00 | 0.00 | 0.00 | 29 | 1000.8 |
| 20260506031518 | 76 | 321 | 7.0 | 10.4 | 0.00 | 0.00 | 0.00 | 30 | 1000.6 |
| 20260506030018 | 80 | 286 | 4.3 | 6.1 | 0.00 | 0.00 | 0.00 | 25 | 1000.3 |
| 20260506024526 | 80 | 294 | 2.6 | 3.5 | 0.00 | 0.00 | 0.00 | 25 | 1000.0 |
| 20260506023014 | 79 | 309 | 3.5 | 4.3 | 0.00 | 0.00 | 0.00 | 26 | 1000.1 |
| 20260506021521 | 79 | 265 | 2.6 | 3.5 | 0.00 | 0.00 | 0.00 | 26 | 1000.1 |
| 20260506020013 | 80 | 273 | 2.6 | 6.1 | 0.00 | 0.00 | 0.00 | 25 | 1000.0 |
| 20260506014521 | 80 | 296 | 4.3 | 6.1 | 0.00 | 0.00 | 0.00 | 26 | 999.9 |
| 20260506013012 | 80 | 303 | 3.5 | 4.3 | 0.00 | 0.00 | 0.00 | 26 | 999.9 |
| 20260506011520 | 80 | 277 | 3.5 | 6.1 | 0.00 | 0.00 | 0.00 | 26 | 1000.0 |
| 20260506010013 | 81 | 265 | 6.1 | 7.8 | 0.00 | 0.00 | 0.00 | 25 | 1000.0 |
| 20260506004509 | 81 | 279 | 7.0 | 13.0 | 0.00 | 0.00 | 0.00 | 25 | 1000.1 |
| 20260506003007 | 81 | 298 | 6.1 | 10.4 | 0.00 | 0.00 | 0.00 | 25 | 1000.2 |
| 20260506001630 | 81 | 275 | 11.3 | 14.8 | 0.00 | 0.00 | 0.00 | 24 | 1000.3 |
| 20260506000014 | 81 | 281 | 12.2 | 16.5 | 0.00 | 0.00 | 0.00 | 24 | 1000.3 |
| 20260505234515 | 80 | 292 | 12.2 | 16.5 | 0.00 | 0.00 | 0.00 | 25 | 1000.5 |
| 20260505233011 | 80 | 272 | 13.0 | 20.9 | 0.00 | 0.00 | 0.00 | 24 | 1000.7 |
| 20260505231504 | 80 | 288 | 12.2 | 18.2 | 0.00 | 0.00 | 0.00 | 24 | 1000.6 |
| 20260505230002 | 80 | 286 | 13.0 | 22.6 | 0.00 | 0.00 | 0.00 | 25 | 1000.8 |
| 20260505224501 | 80 | 287 | 16.5 | 20.9 | 0.00 | 0.00 | 0.00 | 24 | 1000.8 |
| 20260505223113 | 80 | 312 | 19.1 | 25.2 | 0.00 | 0.00 | 0.00 | 24 | 1000.8 |
| 20260505221603 | 80 | 294 | 20.9 | 28.7 | 0.00 | 0.00 | 0.00 | 24 | 1000.7 |
| 20260505220059 | 80 | 292 | 23.5 | 28.7 | 0.00 | 0.00 | 0.00 | 24 | 1000.9 |
| 20260505214602 | 80 | 271 | 11.3 | 18.2 | 0.00 | 0.00 | 0.00 | 25 | 1001.4 |
| 20260505213054 | 80 | 275 | 18.2 | 25.2 | 0.00 | 0.00 | 0.00 | 25 | 1001.6 |
| 20260505211624 | 80 | 272 | 18.2 | 23.5 | 0.00 | 0.00 | 0.00 | 25 | 1001.4 |
| 20260505210055 | 80 | 252 | 17.4 | 26.9 | 0.00 | 0.00 | 0.00 | 25 | 1001.7 |
| 20260505204556 | 80 | 286 | 16.5 | 24.3 | 0.00 | 0.00 | 0.00 | 26 | 1001.7 |
| 20260505203114 | 80 | 280 | 21.7 | 29.5 | 0.00 | 0.00 | 0.00 | 25 | 1001.8 |
| 20260505201551 | 80 | 259 | 21.7 | 31.3 | 0.00 | 0.00 | 0.00 | 25 | 1001.9 |
| 20260505200050 | 81 | 277 | 20.9 | 28.7 | 0.00 | 0.00 | 0.00 | 24 | 1001.8 |
| 20260505194550 | 81 | 286 | 20.9 | 31.3 | 0.00 | 0.00 | 0.00 | 24 | 1002.1 |
| 20260505193047 | 80 | 252 | 20.0 | 26.1 | 0.00 | 0.00 | 0.00 | 25 | 1001.9 |
| 20260505191554 | 80 | 262 | 18.2 | 27.8 | 0.00 | 0.00 | 0.00 | 26 | 1001.9 |
| 20260505190047 | 80 | 282 | 18.2 | 25.2 | 0.00 | 0.00 | 0.00 | 27 | 1002.1 |
| 20260505184550 | 80 | 254 | 20.0 | 25.2 | 0.00 | 0.00 | 0.00 | 26 | 1002.1 |
| 20260505183048 | 80 | 267 | 22.6 | 26.1 | 0.00 | 0.00 | 0.00 | 27 | 1002.4 |
| 20260505181552 | 79 | 257 | 13.0 | 18.2 | 0.00 | 0.00 | 0.00 | 27 | 1002.7 |
| 20260505180055 | 79 | 262 | 10.4 | 13.9 | 0.00 | 0.00 | 0.00 | 26 | 1002.7 |
| 20260505174546 | 79 | 270 | 7.0 | 12.2 | 0.00 | 0.00 | 0.00 | 26 | 1002.6 |
| 20260505173044 | 78 | 237 | 9.6 | 13.9 | 0.00 | 0.00 | 0.00 | 26 | 1002.8 |
| 20260505171534 | 78 | 273 | 7.8 | 12.2 | 0.00 | 0.00 | 0.00 | 26 | 1002.8 |
| 20260505170037 | 77 | 261 | 9.6 | 14.8 | 0.00 | 0.00 | 0.00 | 27 | 1002.9 |
| 20260505164535 | 77 | 255 | 11.3 | 13.9 | 0.00 | 0.00 | 0.00 | 27 | 1003.1 |
| 20260505163033 | 77 | 255 | 11.3 | 14.8 | 0.00 | 0.00 | 0.00 | 27 | 1002.9 |
| 20260505161531 | 77 | 281 | 9.6 | 15.6 | 0.00 | 0.00 | 0.00 | 27 | 1002.6 |
| 20260505153031 | 76 | 263 | 9.6 | 13.0 | 0.00 | 0.00 | 0.00 | 27 | 1002.5 |
| 20260505151538 | 74 | 311 | 3.5 | 7.0 | 0.00 | 0.00 | 0.00 | 32 | 1002.4 |
| 20260505124534 | 71 | 242 | 12.2 | 15.6 | 0.00 | 0.00 | 0.00 | 29 | 1000.7 |
| 20260505123033 | 70 | 225 | 13.0 | 15.6 | 0.00 | 0.00 | 0.00 | 30 | 1000.6 |
| 20260505121536 | 68 | 218 | 9.6 | 12.2 | 0.00 | 0.00 | 0.00 | 36 | 1000.5 |
| 20260505120030 | 69 | 221 | 5.2 | 7.0 | 0.00 | 0.00 | 0.00 | 33 | 1000.4 |
| 20260505114524 | 69 | 243 | 7.0 | 8.7 | 0.00 | 0.00 | 0.00 | 33 | 1000.2 |